#timestamp,LO_Frequency,Hit,StdDev 
1670220015.2,286047006.3,N
1670220035.9,286047006.5,N
1670220055.7,286047006.8,N
1670220075.6,286047006.7,N
1670220095.4,286047004.5,N
1670220115.3,286047007.6,Y
1670220135.1,286047002.0,P
1670220136.0,286047002.0,N
1670220155.8,286047002.1,N
1670220175.7,286047004.2,Y
1670220195.5,286047000.4,P
1670220215.3,286047000.5,N
1670220235.2,286047001.2,N
1670220255.0,286047000.3,N
1670220255.9,286047000.3,N
1670220275.8,286047000.6,N
1670220295.6,286047002.8,Y
1670220315.4,286047000.2,P
1670220335.3,286047001.6,P
1670220355.1,286047000.1,N
1670220375.8,286047001.9,Y
1670220395.7,286046999.9,P
1670220415.5,286047000.4,N
1670220435.4,286047000.2,N
1670220455.2,286047002.8,Y
1670220475.0,286047002.5,P
1670220475.9,286047002.5,N
1670220495.8,286047001.7,N
1670220515.6,286047001.3,N
1670220535.5,286047001.3,N
1670220555.3,286047001.5,N
1670220575.1,286047001.9,N
1670220595.9,286047001.3,N
1670220615.7,286047002.1,Y
1670220635.5,286047002.0,P
1670220655.4,286047000.2,N
1670220675.2,286047000.5,N
1670220695.1,286047000.0,N
1670220696.0,286047000.0,N
1670220715.8,286047000.4,N
1670220735.6,286046999.9,N
1670220755.5,286047000.3,N
1670220775.3,286046999.7,N
1670220795.1,286047000.3,N
1670220815.9,286047000.2,N
1670220835.7,286047000.9,N
1670220855.6,286047002.7,Y
1670220875.4,286047003.2,P
1670220895.2,286047001.8,N
1670220915.1,286047001.5,N
1670220916.0,286047001.5,N
1670220935.8,286047010.0,Y
1670220955.7,286047006.9,P
1670220975.5,286047004.9,N
1670220995.3,286047003.8,N
1670221015.2,286047004.1,N
1670221035.0,286047002.3,N
1670221035.9,286047002.3,N
1670221055.7,286047001.5,N
1670221075.6,286047006.1,Y
1670221095.4,286047005.8,P
1670221115.3,286047003.3,N
1670221135.1,286047002.9,N
1670221136.0,286047002.9,N
1670221155.8,286047003.5,Y
1670221175.7,286046998.7,P
1670221195.5,286046998.1,N
1670221215.3,286046998.5,N
1670221235.2,286046997.4,N
1670221255.0,286046997.4,N
1670221255.9,286046997.4,N
1670221275.8,286046995.6,N
1670221295.6,286046995.6,N
1670221315.4,286046995.7,N
1670221335.3,286046995.2,N
1670221355.1,286046995.5,N
1670221375.9,286046993.9,N
1670221395.7,286046995.5,N
1670221415.5,286046995.5,N
1670221435.4,286046995.7,N
1670221455.2,286046998.0,N
1670221475.0,286046997.6,N
1670221475.9,286046997.6,N
1670221495.8,286046997.2,N
1670221515.6,286046996.5,N
1670221535.5,286046999.5,N
1670221555.3,286046997.1,N
1670221575.1,286046997.8,N
1670221595.9,286046998.9,N
1670221615.7,286046997.3,N
1670221635.5,286047002.5,N
1670221655.4,286046998.9,N
1670221675.2,286047002.3,N
1670221695.1,286047001.0,N
1670221696.0,286047001.0,N
1670221715.8,286046998.9,N
1670221735.6,286046999.3,N
1670221755.5,286046996.8,N
1670221775.3,286046994.9,N
1670221795.1,286046998.0,N
1670221815.9,286046995.1,N
1670221835.7,286046993.4,Y
1670221855.6,286046996.8,P
1670221875.4,286046998.0,P
1670221895.2,286046999.6,N
1670221915.1,286046997.0,N
1670221916.0,286046997.0,Y
1670221935.8,286046999.7,P
1670221955.7,286047000.1,N
1670221975.5,286046999.7,N
1670221995.3,286047000.1,N
1670222015.2,286047002.2,N
1670222035.0,286047000.6,N
1670222035.9,286047000.6,N
1670222055.8,286047004.5,Y
1670222075.6,286047004.5,P
1670222095.4,286047007.3,P
1670222115.3,286047007.4,N
1670222135.1,286047009.2,Y
1670222155.8,286047001.6,P
1670222175.7,286047005.9,P
1670222195.5,286047003.3,N
1670222215.4,286047002.6,N
1670222235.2,286047000.4,N
1670222255.0,286046998.3,N
1670222255.9,286046998.3,N
1670222275.8,286046998.3,N
1670222295.6,286047001.3,N
1670222315.4,286047002.1,N
1670222335.3,286047001.3,N
1670222355.1,286047002.3,N
1670222375.9,286047001.7,N
1670222395.7,286047008.4,Y
1670222415.5,286047002.0,P
1670222435.4,286046996.9,P
1670222455.2,286046996.1,N
1670222475.0,286046992.9,N
1670222475.9,286046992.9,N
1670222495.8,286046991.1,N
1670222515.6,286046990.4,N
1670222535.5,286046991.2,N
1670222555.3,286046989.0,N
1670222575.1,286046991.6,N
1670222595.9,286046989.3,N
1670222615.7,286046991.9,N
1670222635.5,286046992.5,N
1670222655.4,286046991.0,N
1670222675.2,286046991.3,N
1670222695.1,286046993.0,N
1670222696.0,286046993.0,N
1670222715.8,286046991.0,N
1670222735.6,286046990.9,N
1670222755.5,286046990.9,N
1670222775.3,286046991.5,N
1670222795.2,286046989.4,Y
1670222815.9,286046995.2,P
1670222835.7,286046995.0,P
1670222855.6,286046995.4,P
1670222875.4,286046997.6,N
1670222895.3,286046995.4,Y
1670222915.1,286046999.9,P
1670222916.0,286046999.9,N
1670222935.8,286047000.6,N
1670222955.7,286047000.1,N
1670222975.5,286047002.2,N
1670222995.4,286046999.7,N
1670223015.2,286047002.7,N
1670223035.0,286046999.7,N
1670223035.9,286046999.7,N
1670223055.8,286046999.9,N
1670223075.6,286047002.1,N
1670223095.4,286047001.5,N
1670223115.3,286047003.8,N
1670223135.1,286047004.4,N
1670223155.9,286047002.3,N
1670223175.7,286047004.4,N
1670223195.5,286047001.8,N
1670223215.4,286047004.0,N
1670223235.2,286047004.1,N
1670223255.0,286047003.4,N
1670223255.9,286047003.4,N
1670223275.8,286047001.4,N
1670223295.6,286047001.7,N
1670223315.5,286047001.4,N
1670223335.3,286047003.9,N
1670223355.1,286047001.5,N
1670223375.9,286047004.4,N
1670223395.7,286047002.6,N
1670223415.5,286046999.7,N
1670223435.4,286047000.4,N
1670223455.2,286047002.0,N
1670223475.1,286047001.8,N
1670223476.0,286047001.8,N
1670223495.8,286047003.9,N
1670223515.6,286047004.3,N
1670223535.5,286047002.3,N
1670223555.3,286047003.6,N
1670223575.2,286047004.1,N
1670223595.9,286047004.3,N
